Printer-friendly version
Follow the MPC on Twitter Follow the MPC on Facebook The MPC blog
Minor Planet Center

MPEC 2010-N25 : 2010 NN

The following Minor Planet Electronic Circular may be linked-to from your own Web pages, but must not otherwise be redistributed electronically.

A form allowing access to any MPEC is at the bottom of this page.


Read MPEC 2010-N24 Read MPEC 2010-N26


M.P.E.C. 2010-N25                                Issued 2010 July 7, 15:38 UT

     The Minor Planet Electronic Circulars contain information on unusual
         minor planets and routine data on comets.  They are published
   on behalf of Commission 20 of the International Astronomical Union by the
          Minor Planet Center, Smithsonian Astrophysical Observatory,
                          Cambridge, MA 02138, U.S.A.

             Prepared using the Tamkin Foundation Computer Network

                              MPC@CFA.HARVARD.EDU
       URL http://www.minorplanetcenter.org/iau/mpc.html  ISSN 1523-6714

                                    2010 NN

Observations:
     K10N00N* C2010 07 06.44094 20 49 17.15 -11 51 38.9          20.0 V EN025G96
     K10N00N  C2010 07 06.44803 20 49 24.60 -11 50 12.4          20.0 V EN025G96
     K10N00N  C2010 07 06.45525 20 49 32.22 -11 48 45.6          20.4 V EN025G96
     K10N00N  C2010 07 06.46249 20 49 39.86 -11 47 17.6          20.1 V EN025G96
     K10N00N  C2010 07 07.27256321 03 24.32 -09 44 28.6          20.7 V EN025H21
     K10N00N  C2010 07 07.27390521 03 25.13 -09 44 20.0          20.6 V EN025H21
     K10N00N  C2010 07 07.27487721 03 25.73 -09 44 13.5          20.7 V EN025H21
     K10N00N  C2010 07 07.29885 21 03 51.55 -09 40 26.2          20.4 V EN025G96
     K10N00N  C2010 07 07.30255 21 03 53.60 -09 40 01.2          20.8 V EN025G96
     K10N00N  C2010 07 07.30621 21 03 55.72 -09 39 35.6          20.9 V EN025G96
     K10N00N  C2010 07 07.30991 21 03 57.78 -09 39 11.0          20.7 V EN025G96

Observer details:
G96 Mt. Lemmon Survey.  Observer A. Boattini.  Measurers J. D. Ahern,
    E. C. Beshore, A. Boattini, G. J. Garradd, A. R. Gibbs, A. D. Grauer,
    R. E. Hill, R. A. Kowalski, S. M. Larson, R. H. McNaught.  1.5-m reflector
    + CCD.
H21 Astronomical Research Observatory, Westfield.  Observer R. Holmes.
    Measurer S. Foglia.

Orbital elements:
2010 NN                                                  Earth MOID = 0.0015 AU
Epoch 2010 July 23.0 TT = JDT 2455400.5                 MPC
M  17.62953              (2000.0)            P               Q
n   0.41571216     Peri.  331.26188     -0.27656820     +0.96022857
a   1.7780374      Node   282.66100     -0.87400608     -0.26792632
e   0.4468823      Incl.    2.25294     -0.39952898     -0.07859119
P   2.37           H   28.4           G   0.15           U   7
Residuals in seconds of arc
100706 G96  0.2+  0.0     100707 H21  0.4-  0.6+    100707 G96  0.4-  0.3-
100706 G96  0.2-  0.4+    100707 H21  0.1+  0.2-    100707 G96  0.2+  0.6+
100706 G96  0.1+  0.4-    100707 H21  0.6+  0.5-    100707 G96  0.1-  0.2+
100706 G96  0.4+  0.1+    100707 G96  0.4+  0.3-

Ephemeris:
2010 NN                  a,e,i = 1.78, 0.45, 2                   q = 0.9835
Date    TT    R. A. (2000) Decl.     Delta      r     Elong.  Phase     V
2010 07 03    12 08.67   -19 00.0    0.00524  1.017    89.0    90.8    20.2
2010 07 05    19 44.84   -20 30.0    0.00616  1.023   168.3    11.6    18.1
2010 07 07    20 59.51   -10 12.1    0.0145   1.029   149.6    30.0    20.6
2010 07 09    21 17.64   -07 21.1    0.0233   1.036   146.2    33.1    21.7
2010 07 11    21 25.44   -06 05.6    0.0322   1.043   145.7    33.3    22.4
2010 07 13    21 29.58   -05 25.0    0.0411   1.051   146.3    32.4    22.9

Sonia Keys                   (C) Copyright 2010 MPC           M.P.E.C. 2010-N25

Read MPEC 2010-N24 Read MPEC 2010-N26


MPEC number:

Enter an MPEC number in one of the following forms:

  • 1997-B01 (the full form)
  • J97B01 (the packed version of the full form)
  • B01 (the abbreviated form)

Valid HTML 4.01!